User: anonymous   Login
Location: Sears
(37.7625°N, 100.1060°W)
Time: 21:59:42
(UTC+00:00)
Language:

ISS - Orbit

View from above orbital plane
View from above orbital plane
View from above satellite
View from above satellite

Ground track
Ground track

The orbit data is extracted from the following two-line orbital elements,

1 25544U 98067A   21268.61879630  .00000049  00000-0  90971-5 0  9993
2 25544  51.6439 206.1502 0004044  26.1067 340.1160 15.48844439304169
Epoch (UTC): 25 September 2021 14:51:04
Eccentricity: 0.0004044
inclination: 51.6439°
perigee height: 417 km
apogee height: 423 km
right ascension of ascending node: 206.1502°
argument of perigee: 26.1067°
revolutions per day: 15.48844439
mean anomaly at epoch: 340.1160°
orbit number at epoch: 30416

The dashed part of the orbit path shows where the satellite is in the earth's shadow,  

DLR